This demonstration page uses our WeatherBlox Daily Observations layout. Learn more.

Left ArrowRight Arrow

39.01783, -85.05884

Hourly Observations for June 21, 2018

Temp ( °F °C ) Dew Point ( °F °C ) Humidity (%) Winds ( mph kmh ) Pressure ( in mb ) Visibility ( mi km ) Precip ( " mm )
12:52 am 00:52 Mostly Cloudy 75 23.9 70 21.1 84 84 SW 3 6 29.81 1010 10 16 N/A
1:52 am 01:52 Mostly Cloudy 74 23.3 70 21.1 88 88 SSW 3 6 29.80 1009 10 16 N/A
2:52 am 02:52 Cloudy with Light Rain 75 23.9 70 21.1 84 84 W 8 13 29.80 1009 10 16 N/A
3:52 am 03:52 Cloudy 73 22.8 71 21.7 94 94 S 6 9 29.77 1008 10 16 0.03 0.76
4:36 am 04:36 Cloudy with Heavy Rain 72 22.2 71 21.7 97 97 WNW 9 15 29.80 1009 2 3 0.07 1.78
4:52 am 04:52 Cloudy with Nearby Thunderstorms 71 21.7 71 21.7 100 100 S 5 7 29.78 1009 5 8 0.13 3.30
5:16 am 05:16 Cloudy with Thunderstorms 71 21.7 71 21.7 100 100 SSE 3 6 29.80 1009 3 4 0.01 0.25
5:32 am 05:32 Cloudy with Thunderstorms 71 21.7 71 21.7 100 100 S 6 9 29.77 1008 5 8 0.22 5.59
5:52 am 05:52 Cloudy with Light Rain 71 21.7 71 21.7 100 100 N N/A 29.78 1009 5 8 0.24 6.10
6:23 am 06:23 Cloudy 72 22.2 71 21.7 97 97 N 5 7 29.80 1009 10 16 N/A
6:52 am 06:52 Cloudy 72 22.2 72 22.2 100 100 N N/A 29.79 1009 10 16 N/A
7:10 am 07:10 Cloudy 72 22.2 72 22.2 100 100 S 3 6 29.80 1009 8 13 N/A
7:52 am 07:52 Mostly Cloudy 73 22.8 72 22.2 96 96 S 5 7 29.79 1009 10 16 N/A
8:52 am 08:52 Cloudy with Light Rain 74 23.3 72 22.2 94 94 S 8 13 29.78 1009 8 13 N/A
9:52 am 09:52 Cloudy 74 23.3 71 21.7 91 91 SSW 6 9 29.79 1009 7 11 N/A
10:04 am 10:04 Cloudy with Light Rain 74 23.3 71 21.7 91 91 SSW 5 7 29.80 1009 5 8 N/A
10:07 am 10:07 Cloudy with Light Rain 74 23.3 71 21.7 91 91 S 7 11 29.80 1009 3 5 N/A
10:36 am 10:36 Cloudy with Light Rain 72 22.2 67 19.4 84 84 WNW 6 9 29.77 1008 3 5 0.01 0.25
10:52 am 10:52 Cloudy with Mist and Fog 73 22.8 69 20.6 87 87 W 7 11 29.78 1008 3 5 0.01 0.25
11:11 am 11:11 Cloudy with Light Rain 72 22.2 68 20 87 87 NW 3 6 29.77 1008 3 5 0.01 0.25
11:52 am 11:52 Cloudy with Rain 73 22.8 71 21.7 94 94 N N/A 29.78 1008 2 2 0.03 0.76
12:17 pm 12:17 Cloudy with Mist and Fog 74 23.3 74 23.3 100 100 SSE 5 7 29.77 1008 5 8 0.02 0.51
12:52 pm 12:52 Cloudy with Light Rain 74 23.3 73 22.8 97 97 S 7 11 29.76 1008 5 8 0.02 0.51
1:14 pm 13:14 Cloudy with Light Rain 75 23.9 75 23.9 100 100 S 6 9 29.74 1007 4 6 0.02 0.51
1:28 pm 13:28 Cloudy with Light Rain 74 23.3 73 22.8 97 97 SW 5 7 29.74 1007 3 4 0.03 0.76
1:52 pm 13:52 Cloudy with Light Rain 74 23.3 74 23.3 100 100 N N/A 29.74 1007 3 4 0.03 0.76
2:03 pm 14:03 Cloudy with Light Rain 75 23.9 73 22.8 94 94 S 8 13 29.74 1007 6 10 N/A
2:21 pm 14:21 Cloudy with Light Rain 74 23.3 72 22.2 94 94 S 9 15 29.74 1007 7 11 N/A
2:52 pm 14:52 Cloudy with Light Rain 75 23.9 72 22.2 90 90 SSE 10 17 29.72 1007 10 16 N/A
3:23 pm 15:23 Cloudy with Light Rain 73 22.8 71 21.7 94 94 SSE 10 17 29.71 1006 2 3 N/A
3:30 pm 15:30 Cloudy with Rain 73 22.8 71 21.7 94 94 SW 9 15 29.71 1006 2 3 0.03 0.76
3:43 pm 15:43 Cloudy 73 22.8 70 21.1 90 90 SSW 12 19 29.71 1006 9 14 0.04 1.02
3:52 pm 15:52 Cloudy 73 22.8 70 21.1 90 90 SSW 12 19 29.72 1006 10 16 0.04 1.02
4:09 pm 16:09 Cloudy with Mist and Fog 72 22.2 69 20.6 91 91 SW 12 19 29.71 1006 6 10 N/A
4:52 pm 16:52 Cloudy 74 23.3 70 21.1 88 88 W 13 20 29.71 1006 10 16 N/A
5:36 pm 17:36 Cloudy 75 23.9 70 21.1 84 84 WNW 9 15 29.71 1006 10 16 N/A
5:52 pm 17:52 Cloudy 75 23.9 69 20.6 82 82 NW 7 11 29.70 1006 10 16 N/A
6:52 pm 18:52 Mostly Cloudy 76 24.4 69 20.6 79 79 N 5 7 29.69 1006 10 16 N/A
7:52 pm 19:52 Mostly Cloudy 76 24.4 68 20 77 77 N 3 6 29.70 1006 10 16 N/A
8:52 pm 20:52 Mostly Cloudy 75 23.9 68 20 79 79 NE 6 9 29.70 1006 10 16 N/A
9:52 pm 21:52 Mostly Cloudy with Light Rain 74 23.3 70 21.1 88 88 ESE 7 11 29.70 1006 8 13 0.01 0.25
10:04 pm 22:04 Mostly Cloudy with Light Rain 73 22.8 70 21.1 90 90 S 5 7 29.71 1006 10 16 N/A
10:52 pm 22:52 Cloudy 73 22.8 69 20.6 87 87 N N/A 29.72 1007 10 16 N/A
11:24 pm 23:24 Mostly Cloudy 73 22.8 70 21.1 90 90 E 5 7 29.71 1006 10 16 N/A
11:52 pm 23:52 Cloudy 73 22.8 69 20.6 87 87 SSE 5 7 29.71 1006 10 16 N/A

Powered by AerisWeather